Regional Weather Roundup
Issued by NWS Sterling, VA

Home | Current Version | Previous Version | Graphics & Text | Print | Product List | Glossary On
Versions: 1 2 3 4 5 6 7 8 9 10 11 12 13 14 15 16 17 18 19 20 21 22 23 24 25 26 27 28 29 30 31 32 33 34 35 36 37 38 39 40 41 42 43 44 45 46 47 48 49 50
000
ASUS41 KLWX 271310
RWRLWX

REGIONAL WEATHER ROUNDUP
NATIONAL WEATHER SERVICE BALTIMORE MD/WASHINGTON DC
900 AM EDT WED MAY 27 2015

Note: "FAIR" indicates few or no clouds below 12,000 feet
with no significant weather and/or obstructions to visibility.
 TC=TEMPERATURE CELSIUS

 * =Non NWS site. Station does not report precipitation (e.g. rain,
    snow, etc.), thunder, or fog.

DCZ001-MDZ009-015-VAZ040>042-051-053>054-271400-
WASHINGTON METRO

CITY           SKY/WX    TMP DP  RH WIND       PRES   REMARKS
WASHINGTON NAT CLOUDY    77  69  76 S10       30.18S
DULLES         CLOUDY    74  68  81 S7        30.17R
ANDREWS AFB    CLOUDY    75  69  83 S9        30.18R
FT BELVOIR     CLOUDY    75  69  82 S5        30.18R
QUANTICO       PTSUNNY   76  69  79 SW8       30.19R
COLLEGE PARK*  MOSUNNY   77  68  73 S6        30.17S
LEESBURG*      CLOUDY    75  72  88 S12       30.18S
MANASSAS*      CLOUDY    75  70  83 S9          N/A
GAITHERSBURG*  CLOUDY    75  68  78 S9        30.21S

$$

MDZ006>007-011-014-271400-
BALTIMORE METRO

CITY           SKY/WX    TMP DP  RH WIND       PRES   REMARKS
BWI AIRPORT    PTSUNNY   76  69  79 S7        30.16S
MD SCIENCE CTR   N/A     77  69  76 MISG      30.17S
MARTIN STATE   PTSUNNY   75  72  88 SE8       30.19R
ANNAPOLIS      CLOUDY    75  68  78 S6        30.18S
FORT MEADE*    PTSUNNY   77  68  73 SW6       30.19S

$$

MDZ012-015-019>023-271400-
MARYLAND EASTERN SHORE

CITY           SKY/WX    TMP DP  RH WIND       PRES   REMARKS
OCEAN CITY     MOSUNNY   73  66  78 SW13      30.24R
SALISBURY      CLOUDY    74  68  81 S12       30.23R
BAY BRIDGE AP*   N/A    N/A N/A N/A S9        30.19R
CAMBRIDGE*     CLOUDY    77  70  78 S9        30.21R
EASTON*        CLOUDY    75  72  88 SW12      30.24R

$$

MDZ017>025-271400-
SOUTHERN MARYLAND

CITY           SKY/WX    TMP DP  RH WIND       PRES   REMARKS
PATUXENT RIVER PTSUNNY   76  68  76 SW10G20   30.19S
ST INIGOES     MOSUNNY   76  68  76 S8        30.20S
LEONARDTOWN*   PTSUNNY   73  66  78 S7        30.21F

$$

MDZ003>005-271400-
NORTH CENTRAL MARYLAND

CITY           SKY/WX    TMP DP  RH WIND       PRES   REMARKS
FREDERICK*     NOT AVBL
HAGERSTOWN APT MOSUNNY   76  67  73 S9        30.15F
WESTMINSTER*     N/A     75  72  88 SW13      30.18S

$$

MDZ501>502-271400-
WESTERN MARYLAND

CITY           SKY/WX    TMP DP  RH WIND       PRES   REMARKS
OAKLAND*       PTSUNNY   61 N/A N/A W6        30.25R FOG
CUMBERLAND*    PTSUNNY   68  66  94 CALM      30.19S

$$

VAZ025>031-271400-
SHENANDOAH VALLEY

CITY           SKY/WX    TMP DP  RH WIND       PRES   REMARKS
WINCHESTER*    SUNNY     77  63  61 S6        30.16S
FRONT ROYAL*   FAIR      73  68  83 S3        30.16R
LURAY*         FAIR      79  70  73 SW8       30.17R
NEW MARKET*    FAIR      76  67  73 SW12G18   30.16R
STAUNTON*      MOSUNNY   76  67  74 S7        30.22R
WAYNESBORO*    FAIR      73  65  76 S5        30.22R

$$

WVZ021-048>050-054>055-271400-
EASTERN WEST VIRGINIA PANHANDLE

CITY           SKY/WX    TMP DP  RH WIND       PRES   REMARKS
MARTINSBURG    SUNNY     76  68  76 S8        30.15F
PETERSBURG*    CLOUDY    69  64  83 CALM      30.18R

$$

VAZ036>039-050-271400-
CENTRAL FOOTHILLS

CITY           SKY/WX    TMP DP  RH WIND       PRES   REMARKS
CHARLOTTESVILL PTSUNNY   75  68  78 S10       30.18S
CULPEPER*      CLOUDY    74  68  81 SW7       30.18S
ORANGE*        PTSUNNY   77  70  78 S13       30.20S
GORDONSVILLE*  PTSUNNY   75  68  78 SW8       30.18R
WARRENTON*     CLOUDY    76  71  84 SW8       30.17S

$$

VAZ055>057-271400-
NORTH AND CENTRAL PIEDMONT

CITY           SKY/WX    TMP DP  RH WIND       PRES   REMARKS
FREDERICKSBRG* MOSUNNY   79  70  74 S10G16    30.17F
STAFFORD*      PTSUNNY   76  68  76 S10       30.22S

$$

NCZ024-NYZ072-PAZ021-071-VAZ022-071-271400-
OTHER REGIONAL OBSERVATIONS

CITY           SKY/WX    TMP DP  RH WIND       PRES   REMARKS
NEW YORK CITY  CLOUDY    74  65  73 SW9       30.20S
PHILADELPHIA   CLOUDY    76  68  76 SW13G22   30.18R
PITTSBURGH     CLOUDY    68  64  87 S7        30.14S
ROANOKE        CLOUDY    71  63  75 SW3       30.25R
RICHMOND       MOSUNNY   79  69  71 S10       30.21R
RALEIGH        CLOUDY    73  68  84 SW13      30.28R

$$

ANZ530>537-271400-
MARINE OBSERVATIONS

STATION/POSITION TIME  TEMP    WIND        PRES
                       AIR SEA DIR/SP/G
                 (UTC) (F)     (DEG/KT/KT) (MB)
THOMAS PT LIGHT  1300   70 68  170/ 13/ 15 1022.4S
BALT KEY BRIDGE  1200   73     170/  9/ 12 1021.2R
COVE POINT       1200   69     190/  8/ 10 1023.1R
LEWISETTA        1200   74 73              1022.3R
SOLOMONS ISLAND  1200      70                N/A
PINEY POINT      1200          230/ 11/ 12   N/A

$$




USA.gov is the U.S. government's official web portal to all federal, state and local government web resources and services.